Regional Weather Roundup
Issued by NWS

Home | Current Version | Previous Version | Text Only | Print | Product List | Glossary Off
Versions: 1 2 3 4 5 6 7 8 9 10 11 12 13 14 15 16 17 18 19 20 21 22 23 24 25 26 27 28 29 30 31 32 33 34 35 36 37 38 39 40 41 42 43 44 45 46 47 48 49 50

000
ASUS43 KLOT 270108
RWRIL

ILLINOIS REGIONAL WEATHER ROUNDUP
NATIONAL WEATHER SERVICE CHICAGO/ROMEOVILLE IL
700 PM CST SUN FEB 26 2017

NOTE: "FAIR" INDICATES FEW OR NO CLOUDS BELOW 12,000 FEET WITH NO
SIGNIFICANT WEATHER AND/OR OBSTRUCTIONS TO VISIBILITY.

* THESE STATIONS ARE NOT UNDER NWS QUALITY CONTROL. THEY ALSO MAY NOT
  REPORT WEATHER SUCH AS PRECIPITATION OR FOG.

ILZ001-002-007-009-015-016-024-270200-
NORTHWEST ILLINOIS

CITY           SKY/WX    TMP DP  RH WIND       PRES   REMARKS
MOLINE         MOCLDY    43  29  57 S9        29.97R
STERLING*      PTCLDY    42  31  64 VRB5      29.98R
$$

ILZ003-004-008-010-011-017-018-270200-
NORTH CENTRAL ILLINOIS

CITY           SKY/WX    TMP DP  RH WIND       PRES   REMARKS
ROCKFORD       PTCLDY    40  29  64 SW9       29.98R
FREEPORT*      MOCLDY    35  26  71 SW5       29.97R WCI  31
ROCHELLE*      PTCLDY    37  32  80 S14       29.97R WCI  29
DE KALB*       MOCLDY    40  31  71 SW15      29.98R
PERU*          CLOUDY    42  26  53 SW12G17   30.02R
$$

ILZ005-006-012>014-019>023-270200-
NORTHEAST ILLINOIS

CITY           SKY/WX    TMP DP  RH WIND       PRES   REMARKS
CHICAGO-OHARE  CLOUDY    45  26  47 SW16G22   29.98R
CHICAGO-MIDWAY CLOUDY    46  22  38 SW8G18    29.99R
AURORA         CLOUDY    42  30  62 SW10      29.99R
LANSING*       CLOUDY    42  25  51 SW14G21   30.02R
JOLIET*        CLOUDY    46  25  44 SW9G17    30.02R
WAUKEGAN       MOCLDY    35  24  64 SW6       29.95R WCI  30
DUPAGE AIRPORT CLOUDY    42  27  55 SW10      29.98R
KANKAKEE*      CLEAR     39  22  51 SW16      30.04S WCI  30
WHEELING       MOCLDY    44  24  45 SW12G24   29.98R
MORRIS*        CLOUDY    43  25  48 SW10G16   30.01R
ROMEOVILLE*    CLOUDY    44  29  55 SW12      30.01R
NORTHERLY ISL    N/A     46  20  35 W6          N/A
$$

LMZ740>746-270200-
SOUTHERN LAKE MICHIGAN

STATION/POSITION SKY/WX   TEMP    WIND        PRES    VSBY  WAVE
                          AIR SEA DIR/SP/G                  HT/PER
                          (F)     (DEG/KT/KT) (MB)    (MI)  (FT/S)
HARRISON CRIB              47     230/ 15/ 18   N/A
BURNHAM HARBOR             46     250/ 11/ 12   N/A
CALUMET HARBOR             45     190/ 16/ 22 1015.2R
BURNS HARBOR               45     200/ 16/ 21 1016.6R
MICHIGAN CITY              45     180/ 15/ 18   N/A
$$

ILZ025>027-034>036-040-047-049-050-058-095>099-270200-
WEST-CENTRAL ILLINOIS

CITY           SKY/WX    TMP DP  RH WIND       PRES   REMARKS
QUINCY         CLEAR     41  22  46 S9        30.02R
GALESBURG*     PTCLDY    40  30  69 S8          N/A
MACOMB*        CLEAR     41  25  53 S10       30.03R
JACKSONVILLE*  PTCLDY    39  22  49 S7        30.05R WCI  34
PITTSFIELD*    PTCLDY    42  28  58 S8        30.06R
$$

ILZ028>032-037-038-041>044-048-051>054-059>061-270200-
CENTRAL ILLINOIS

CITY           SKY/WX    TMP DP  RH WIND       PRES   REMARKS
PONTIAC        CLEAR     40  25  54 SW12      30.04R
BLOOMINGTON    CLEAR     37  26  64 SW13      30.05R WCI  29
DECATUR        PTCLDY    39  22  50 S8        30.08R WCI  33
PEORIA         CLEAR     41  24  51 SW12      30.03R
LACON*         CLEAR     41  28  60 SW9       30.01R
LINCOLN*       CLEAR     39  26  59 S3        30.06R
SPRINGFIELD    CLEAR     42  22  44 S13       30.06R
TAYLORVILLE    CLOUDY    41  23  48 S10       30.08R
$$

ILZ033-039-045-046-055>057-062-063-270200-
EAST-CENTRAL ILLINOIS

CITY           SKY/WX    TMP DP  RH WIND       PRES   REMARKS
CHAMPAIGN      MOCLDY    42  21  43 S9        30.08R
RANTOUL*       CLOUDY    44  27  50 SW12G21   30.08R
MATTOON        CLOUDY    43  23  45 S5        30.08S
PARIS*         PTCLDY    38  25  60 S7        30.10F WCI  33
$$

ILZ079-100>102-270200-
SOUTHWEST ILLINOIS

CITY           SKY/WX    TMP DP  RH WIND       PRES   REMARKS
ALTON          CLOUDY    41  32  70 S18       30.09R
BELLEVILLE     CLOUDY    42  32  69 CALM      30.09R
CAHOKIA*       CLOUDY    43  31  62 S5        30.10R
SPARTA*        LGT RAIN  43  30  60 S8        30.11R
$$

ILZ064>066-069>071-074>076-080>082-084>086-088>090-092>094-270200-
SOUTH-CENTRAL ILLINOIS

CITY           SKY/WX    TMP DP  RH WIND       PRES   REMARKS
CARBONDALE     CLOUDY    44  30  57 CALM      30.11S
CAIRO*         CLOUDY    47  27  46 E3        30.10S
EFFINGHAM*     CLOUDY    44  23  44 CALM      30.11S
MARION         CLOUDY    46  27  46 CALM      30.12R
MT. VERNON     CLOUDY    42  32  67 S3        30.12R
CENTRALIA*     MOCLDY    42  33  70 CALM      30.10S
SALEM*         CLOUDY    44  31  61 SW7       30.10S
METROPOLIS*    CLOUDY    46  28  47 CALM      30.11F
$$

ILZ067-068-072-073-078-083-087-091-270200-
SOUTHEAST ILLINOIS

CITY           SKY/WX    TMP DP  RH WIND       PRES   REMARKS
LAWRENCEVILLE  CLOUDY    43  24  47 S5        30.12F
FLORA*         CLOUDY    46  26  46 SW7       30.11S
FAIRFIELD*     CLOUDY    44  28  53 CALM      30.11S
HARRISBURG*    CLOUDY    47  28  47 CALM      30.14R
ROBINSON*      CLOUDY    40  24  52 S5        30.12F
CARMI*         CLOUDY    46  27  46 SW6       30.12S
$$

ABBREVIATIONS USED IN REMARKS
   TC - TEMPERATURE IN CELSIUS
  WCI - WIND CHILL INDEX
   HX - HEAT INDEX
  VSB - VISIBILITY
$$





USA.gov is the U.S. government's official web portal to all federal, state and local government web resources and services.